| time (UTC) | temp F | wind direction | speed MPH | gust MPH | rain 1hr in | rain 24hr in | rain mn in | humidity % | barometer mb |
| 20260507213017 | 59 | 318 | 2.0 | 9.0 | 0.00 | 0.07 | 0.00 | 34 | 1003.4 |
| 20260507212509 | 60 | 226 | 3.0 | 10.0 | 0.00 | 0.07 | 0.00 | 34 | 1003.4 |
| 20260507212011 | 59 | 243 | 1.0 | 10.0 | 0.00 | 0.08 | 0.00 | 35 | 1003.3 |
| 20260507211521 | 59 | 317 | 3.0 | 10.0 | 0.00 | 0.08 | 0.00 | 34 | 1003.3 |
| 20260507211008 | 60 | 244 | 4.0 | 9.0 | 0.00 | 0.09 | 0.00 | 32 | 1003.3 |
| 20260507210507 | 61 | 271 | 5.0 | 9.0 | 0.00 | 0.10 | 0.00 | 32 | 1003.2 |
| 20260507210026 | 61 | 246 | 2.0 | 8.0 | 0.00 | 0.11 | 0.00 | 35 | 1003.1 |
| 20260507205509 | 59 | 233 | 2.0 | 8.0 | 0.00 | 0.11 | 0.00 | 37 | 1003.1 |
| 20260507205005 | 58 | 263 | 3.0 | 13.0 | 0.00 | 0.12 | 0.00 | 35 | 1003.2 |
| 20260507204517 | 60 | 245 | 4.0 | 13.0 | 0.00 | 0.12 | 0.00 | 34 | 1003.2 |
| 20260507204006 | 62 | 254 | 2.0 | 8.0 | 0.00 | 0.13 | 0.00 | 34 | 1003.1 |
| 20260507203506 | 61 | 236 | 4.0 | 9.0 | 0.00 | 0.15 | 0.00 | 33 | 1003.1 |
| 20260507203024 | 61 | 268 | 3.0 | 9.0 | 0.00 | 0.15 | 0.00 | 34 | 1003.2 |
| 20260507202512 | 63 | 231 | 4.0 | 8.0 | 0.00 | 0.17 | 0.00 | 33 | 1003.1 |
| 20260507202010 | 62 | 270 | 3.0 | 10.0 | 0.00 | 0.18 | 0.00 | 33 | 1003.1 |
| 20260507201520 | 63 | 330 | 2.0 | 10.0 | 0.00 | 0.19 | 0.00 | 35 | 1003.1 |
| 20260507201009 | 63 | 267 | 3.0 | 12.0 | 0.00 | 0.19 | 0.00 | 38 | 1003.2 |
| 20260507200508 | 62 | 240 | 6.0 | 12.0 | 0.00 | 0.20 | 0.00 | 35 | 1003.1 |
| 20260507200025 | 62 | 244 | 4.0 | 10.0 | 0.00 | 0.20 | 0.00 | 33 | 1003.1 |
| 20260507195509 | 61 | 9 | 1.0 | 9.0 | 0.00 | 0.20 | 0.00 | 38 | 1003.1 |
| 20260507195012 | 60 | 263 | 2.0 | 9.0 | 0.00 | 0.21 | 0.00 | 34 | 1003.3 |
| 20260507194528 | 62 | 254 | 2.0 | 9.0 | 0.00 | 0.21 | 0.00 | 34 | 1003.4 |
| 20260507194007 | 63 | 256 | 2.0 | 9.0 | 0.00 | 0.21 | 0.00 | 35 | 1003.5 |
| 20260507193507 | 63 | 171 | 4.0 | 9.0 | 0.00 | 0.21 | 0.00 | 32 | 1003.5 |
| 20260507193017 | 62 | 55 | 1.0 | 9.0 | 0.00 | 0.22 | 0.00 | 37 | 1003.5 |
| 20260507192513 | 58 | 248 | 2.0 | 5.0 | 0.00 | 0.22 | 0.00 | 42 | 1003.6 |
| 20260507192009 | 58 | 322 | 2.0 | 5.0 | 0.00 | 0.23 | 0.00 | 39 | 1003.6 |
| 20260507191535 | 58 | 242 | 1.0 | 5.0 | 0.00 | 0.23 | 0.00 | 40 | 1003.6 |
| 20260507191015 | 60 | 315 | 1.0 | 8.0 | 0.00 | 0.24 | 0.00 | 39 | 1003.7 |
| 20260507190509 | 60 | 213 | 2.0 | 8.0 | 0.00 | 0.25 | 0.00 | 42 | 1003.8 |
| 20260507190021 | 59 | 277 | 3.0 | 8.0 | 0.00 | 0.25 | 0.00 | 40 | 1003.8 |
| 20260507185510 | 61 | 352 | 1.0 | 7.0 | 0.00 | 0.26 | 0.00 | 38 | 1003.9 |
| 20260507185009 | 62 | 265 | 3.0 | 7.0 | 0.00 | 0.27 | 0.00 | 37 | 1003.8 |
| 20260507184526 | 62 | 124 | 2.0 | 9.0 | 0.00 | 0.27 | 0.00 | 34 | 1003.7 |
| 20260507184008 | 63 | 341 | 3.0 | 11.0 | 0.00 | 0.29 | 0.00 | 38 | 1003.7 |
| 20260507183511 | 62 | 14 | 5.0 | 11.0 | 0.00 | 0.29 | 0.00 | 39 | 1003.8 |
| 20260507183026 | 60 | 26 | 2.0 | 9.0 | 0.00 | 0.29 | 0.00 | 39 | 1003.8 |
| 20260507182507 | 60 | 323 | 2.0 | 9.0 | 0.00 | 0.30 | 0.00 | 40 | 1004.0 |
| 20260507182009 | 63 | 244 | 2.0 | 11.0 | 0.00 | 0.32 | 0.00 | 41 | 1003.9 |
| 20260507181513 | 60 | 253 | 3.0 | 11.0 | 0.00 | 0.35 | 0.00 | 39 | 1004.0 |
| 20260507181008 | 60 | 244 | 1.0 | 10.0 | 0.00 | 0.36 | 0.00 | 43 | 1004.0 |
| 20260507180511 | 62 | 103 | 1.0 | 11.0 | 0.00 | 0.36 | 0.00 | 42 | 1003.9 |
| 20260507180023 | 63 | 279 | 6.0 | 11.0 | 0.00 | 0.36 | 0.00 | 42 | 1003.9 |
| 20260507175511 | 63 | 270 | 2.0 | 11.0 | 0.00 | 0.36 | 0.00 | 42 | 1003.9 |
| 20260507175009 | 63 | 311 | 5.0 | 11.0 | 0.00 | 0.36 | 0.00 | 37 | 1003.7 |
| 20260507174535 | 63 | 224 | 3.0 | 9.0 | 0.00 | 0.36 | 0.00 | 40 | 1003.9 |
| 20260507174015 | 62 | 257 | 2.0 | 7.0 | 0.00 | 0.36 | 0.00 | 40 | 1003.8 |
| 20260507173507 | 61 | 237 | 2.0 | 5.0 | 0.00 | 0.36 | 0.00 | 49 | 1004.0 |
| 20260507173048 | 59 | 211 | 1.0 | 5.0 | 0.00 | 0.36 | 0.00 | 48 | 1004.1 |
| 20260507172509 | 61 | 227 | 1.0 | 7.0 | 0.00 | 0.36 | 0.00 | 47 | 1004.0 |
| 20260507172012 | 61 | 360 | 2.0 | 7.0 | 0.00 | 0.36 | 0.00 | 50 | 1004.1 |
| 20260507171523 | 60 | 277 | 3.0 | 8.0 | 0.00 | 0.36 | 0.00 | 51 | 1004.1 |
| 20260507171006 | 60 | 266 | 3.0 | 11.0 | 0.00 | 0.36 | 0.00 | 52 | 1004.3 |
| 20260507170508 | 60 | 284 | 4.0 | 13.0 | 0.00 | 0.36 | 0.00 | 48 | 1004.4 |
| 20260507170020 | 61 | 256 | 6.0 | 13.0 | 0.00 | 0.36 | 0.00 | 45 | 1004.3 |
| 20260507165509 | 61 | 221 | 3.0 | 10.0 | 0.00 | 0.36 | 0.00 | 47 | 1004.4 |
| 20260507165008 | 61 | 246 | 3.0 | 10.0 | 0.00 | 0.36 | 0.00 | 56 | 1004.6 |
| 20260507164523 | 58 | 217 | 2.0 | 6.0 | 0.00 | 0.36 | 0.00 | 55 | 1004.6 |
| 20260507164013 | 58 | 240 | 1.0 | 9.0 | 0.00 | 0.36 | 0.00 | 55 | 1004.7 |
| 20260507163514 | 59 | 271 | 3.0 | 13.0 | 0.00 | 0.36 | 0.00 | 52 | 1004.7 |
| 20260507163028 | 62 | 277 | 4.0 | 13.0 | 0.00 | 0.36 | 0.00 | 49 | 1004.7 |
| 20260507162515 | 62 | 234 | 5.0 | 12.0 | 0.00 | 0.36 | 0.00 | 48 | 1004.7 |
| 20260507162006 | 61 | 269 | 1.0 | 14.0 | 0.00 | 0.36 | 0.00 | 58 | 1004.7 |
| 20260507161520 | 59 | 263 | 3.0 | 14.0 | 0.00 | 0.36 | 0.00 | 52 | 1004.8 |
| 20260507161013 | 61 | 225 | 5.0 | 13.0 | 0.00 | 0.36 | 0.00 | 52 | 1004.7 |
| 20260507160506 | 60 | 246 | 5.0 | 13.0 | 0.00 | 0.36 | 0.00 | 51 | 1004.8 |
| 20260507160028 | 60 | 248 | 5.0 | 11.0 | 0.00 | 0.36 | 0.00 | 52 | 1004.8 |
| 20260507155515 | 61 | 263 | 3.0 | 11.0 | 0.00 | 0.36 | 0.00 | 49 | 1004.9 |
| 20260507155006 | 62 | 224 | 3.0 | 9.0 | 0.00 | 0.36 | 0.00 | 48 | 1005.0 |
| 20260507154504 | 62 | 246 | 4.0 | 10.0 | 0.00 | 0.36 | 0.00 | 52 | 1005.0 |
| 20260507154004 | 60 | 233 | 4.0 | 11.0 | 0.00 | 0.36 | 0.00 | 53 | 1005.2 |
| 20260507153504 | 57 | 284 | 4.0 | 11.0 | 0.00 | 0.36 | 0.00 | 56 | 1005.4 |
| 20260507153005 | 58 | 254 | 3.0 | 10.0 | 0.00 | 0.36 | 0.00 | 53 | 1005.3 |
| 20260507152504 | 59 | 213 | 4.0 | 10.0 | 0.00 | 0.36 | 0.00 | 51 | 1005.2 |
| 20260507152004 | 57 | 276 | 2.0 | 12.0 | 0.00 | 0.36 | 0.00 | 52 | 1005.4 |
| 20260507151522 | 58 | 207 | 5.0 | 12.0 | 0.00 | 0.36 | 0.00 | 49 | 1005.5 |
| 20260507151005 | 60 | 242 | 2.0 | 10.0 | 0.00 | 0.36 | 0.00 | 51 | 1005.5 |
| 20260507150509 | 58 | 274 | 2.0 | 10.0 | 0.00 | 0.36 | 0.00 | 54 | 1005.5 |
| 20260507150022 | 61 | 244 | 4.0 | 11.0 | 0.00 | 0.36 | 0.00 | 55 | 1005.5 |
| 20260507145507 | 60 | 282 | 3.0 | 11.0 | 0.00 | 0.36 | 0.00 | 57 | 1005.4 |
| 20260507145016 | 56 | 248 | 5.0 | 11.0 | 0.00 | 0.36 | 0.00 | 55 | 1005.6 |
| 20260507144525 | 58 | 211 | 5.0 | 11.0 | 0.00 | 0.36 | 0.00 | 53 | 1005.5 |
| 20260507144008 | 60 | 235 | 4.0 | 9.0 | 0.00 | 0.36 | 0.00 | 55 | 1005.4 |
| 20260507143505 | 60 | 236 | 3.0 | 8.0 | 0.00 | 0.36 | 0.00 | 54 | 1005.2 |
| 20260507143003 | 60 | 275 | 3.0 | 8.0 | 0.00 | 0.36 | 0.00 | 52 | 1005.2 |
| 20260507142505 | 59 | 313 | 2.0 | 8.0 | 0.00 | 0.36 | 0.00 | 54 | 1005.2 |
| 20260507142011 | 59 | 21 | 0.0 | 9.0 | 0.00 | 0.36 | 0.00 | 59 | 1005.4 |
| 20260507141510 | 59 | 286 | 2.0 | 9.0 | 0.00 | 0.36 | 0.00 | 57 | 1005.3 |
| 20260507141007 | 59 | 252 | 4.0 | 9.0 | 0.00 | 0.36 | 0.00 | 58 | 1005.4 |
| 20260507140505 | 59 | 312 | 1.0 | 8.0 | 0.00 | 0.36 | 0.00 | 55 | 1005.2 |
| 20260507140012 | 58 | 317 | 1.0 | 8.0 | 0.00 | 0.36 | 0.00 | 57 | 1005.3 |
| 20260507135506 | 58 | 261 | 4.0 | 8.0 | 0.00 | 0.36 | 0.00 | 55 | 1005.4 |
| 20260507135008 | 58 | 271 | 3.0 | 9.0 | 0.00 | 0.36 | 0.00 | 61 | 1005.4 |
| 20260507134524 | 58 | 319 | 2.0 | 9.0 | 0.00 | 0.36 | 0.00 | 56 | 1005.5 |
| 20260507134011 | 58 | 288 | 2.0 | 9.0 | 0.00 | 0.36 | 0.00 | 60 | 1005.5 |
| 20260507133511 | 56 | 66 | 2.0 | 9.0 | 0.00 | 0.36 | 0.00 | 61 | 1005.6 |
| 20260507133033 | 57 | 60 | 1.0 | 5.0 | 0.00 | 0.36 | 0.00 | 60 | 1005.7 |
| 20260507132504 | 57 | 231 | 1.0 | 6.0 | 0.00 | 0.36 | 0.00 | 63 | 1005.8 |
| 20260507132003 | 56 | 267 | 2.0 | 8.0 | 0.00 | 0.36 | 0.00 | 63 | 1005.8 |
| 20260507131511 | 56 | 219 | 3.0 | 8.0 | 0.00 | 0.36 | 0.00 | 66 | 1005.7 |
| 20260507131009 | 55 | 349 | 2.0 | 9.0 | 0.00 | 0.36 | 0.00 | 65 | 1005.6 |
| 20260507130505 | 55 | 246 | 3.0 | 9.0 | 0.00 | 0.36 | 0.00 | 69 | 1005.6 |
| 20260507130011 | 54 | 112 | 2.0 | 6.0 | 0.00 | 0.36 | 0.00 | 70 | 1005.6 |
| 20260507125507 | 54 | 271 | 3.0 | 6.0 | 0.00 | 0.36 | 0.00 | 69 | 1005.7 |
| 20260507125011 | 54 | 219 | 3.0 | 4.0 | 0.00 | 0.36 | 0.00 | 71 | 1005.7 |
| 20260507124528 | 54 | 288 | 0.0 | 7.0 | 0.00 | 0.36 | 0.00 | 74 | 1005.8 |
| 20260507124006 | 53 | 269 | 1.0 | 7.0 | 0.00 | 0.36 | 0.00 | 76 | 1005.9 |
| 20260507123508 | 53 | 206 | 2.0 | 5.0 | 0.00 | 0.36 | 0.00 | 76 | 1005.8 |
| 20260507123037 | 52 | 208 | 2.0 | 5.0 | 0.00 | 0.36 | 0.00 | 76 | 1005.9 |
| 20260507122511 | 52 | 252 | 1.0 | 4.0 | 0.00 | 0.36 | 0.00 | 79 | 1006.0 |
| 20260507122012 | 52 | 284 | 0.0 | 4.0 | 0.00 | 0.36 | 0.00 | 79 | 1006.0 |
| 20260507121524 | 51 | 300 | 1.0 | 4.0 | 0.00 | 0.36 | 0.00 | 82 | 1006.0 |
| 20260507121003 | 51 | 265 | 2.0 | 4.0 | 0.00 | 0.36 | 0.00 | 81 | 1006.0 |
| 20260507120504 | 50 | 221 | 2.0 | 3.0 | 0.00 | 0.36 | 0.00 | 81 | 1006.0 |
| 20260507120007 | 50 | 251 | 1.0 | 3.0 | 0.00 | 0.36 | 0.00 | 84 | 1005.9 |
| 20260507115506 | 50 | 267 | 1.0 | 3.0 | 0.00 | 0.36 | 0.00 | 86 | 1005.9 |
| 20260507115008 | 49 | 263 | 0.0 | 2.0 | 0.00 | 0.36 | 0.00 | 86 | 1006.0 |
| 20260507114525 | 48 | 244 | 0.0 | 2.0 | 0.00 | 0.36 | 0.00 | 87 | 1005.9 |
| 20260507114008 | 47 | 334 | 0.0 | 2.0 | 0.00 | 0.36 | 0.00 | 88 | 1006.0 |
| 20260507113509 | 47 | 334 | 0.0 | 2.0 | 0.00 | 0.36 | 0.00 | 88 | 1006.0 |
| 20260507113017 | 46 | 263 | 0.0 | 2.0 | 0.00 | 0.36 | 0.00 | 88 | 1006.1 |
| 20260507112511 | 46 | 254 | 0.0 | 2.0 | 0.00 | 0.36 | 0.00 | 88 | 1005.9 |
| 20260507112011 | 46 | 266 | 0.0 | 2.0 | 0.00 | 0.36 | 0.00 | 88 | 1005.8 |
| 20260507111522 | 46 | 238 | 0.0 | 2.0 | 0.00 | 0.36 | 0.00 | 88 | 1005.9 |
| 20260507111009 | 46 | 238 | 0.0 | 2.0 | 0.00 | 0.36 | 0.00 | 89 | 1005.8 |
| 20260507110507 | 46 | 238 | 0.0 | 2.0 | 0.00 | 0.36 | 0.00 | 89 | 1005.7 |
| 20260507110008 | 46 | 238 | 0.0 | 1.0 | 0.00 | 0.36 | 0.00 | 89 | 1005.8 |
| 20260507105506 | 46 | 234 | 0.0 | 1.0 | 0.00 | 0.36 | 0.00 | 89 | 1005.8 |
| 20260507105007 | 46 | 234 | 0.0 | 2.0 | 0.00 | 0.36 | 0.00 | 89 | 1005.6 |
| 20260507104512 | 45 | 234 | 0.0 | 2.0 | 0.00 | 0.36 | 0.00 | 89 | 1005.6 |
| 20260507104011 | 45 | 234 | 0.0 | 1.0 | 0.00 | 0.36 | 0.00 | 89 | 1005.7 |
| 20260507103509 | 46 | 234 | 0.0 | 2.0 | 0.00 | 0.36 | 0.00 | 89 | 1006.0 |
| 20260507103019 | 46 | 234 | 0.0 | 2.0 | 0.00 | 0.36 | 0.00 | 89 | 1005.8 |
| 20260507102507 | 45 | 299 | 0.0 | 2.0 | 0.00 | 0.36 | 0.00 | 89 | 1005.7 |
| 20260507102010 | 45 | 299 | 0.0 | 2.0 | 0.00 | 0.36 | 0.00 | 89 | 1005.8 |
| 20260507101533 | 45 | 299 | 0.0 | 2.0 | 0.00 | 0.36 | 0.00 | 89 | 1006.1 |
| 20260507101008 | 45 | 299 | 0.0 | 2.0 | 0.00 | 0.36 | 0.00 | 90 | 1006.1 |
| 20260507100512 | 45 | 269 | 0.0 | 2.0 | 0.00 | 0.36 | 0.00 | 90 | 1005.9 |
| 20260507100026 | 45 | 269 | 0.0 | 2.0 | 0.00 | 0.36 | 0.00 | 90 | 1005.7 |
| 20260507095508 | 45 | 207 | 0.0 | 2.0 | 0.00 | 0.36 | 0.00 | 90 | 1005.9 |
| 20260507095012 | 45 | 207 | 0.0 | 2.0 | 0.00 | 0.36 | 0.00 | 90 | 1005.5 |
| 20260507094510 | 45 | 204 | 0.0 | 2.0 | 0.00 | 0.36 | 0.00 | 90 | 1005.6 |
| 20260507094010 | 45 | 283 | 0.0 | 2.0 | 0.00 | 0.36 | 0.00 | 90 | 1005.6 |
| 20260507093508 | 45 | 283 | 0.0 | 2.0 | 0.00 | 0.36 | 0.00 | 90 | 1005.7 |
| 20260507093019 | 45 | 283 | 0.0 | 2.0 | 0.00 | 0.36 | 0.00 | 90 | 1005.7 |
| 20260507092506 | 45 | 284 | 0.0 | 2.0 | 0.00 | 0.36 | 0.00 | 90 | 1005.7 |
| 20260507092009 | 46 | 283 | 0.0 | 2.0 | 0.00 | 0.36 | 0.00 | 90 | 1005.3 |
| 20260507091528 | 46 | 283 | 0.0 | 2.0 | 0.00 | 0.36 | 0.00 | 90 | 1005.4 |
| 20260507091010 | 45 | 283 | 0.0 | 2.0 | 0.00 | 0.36 | 0.00 | 90 | 1005.6 |
| 20260507090509 | 46 | 283 | 0.0 | 2.0 | 0.00 | 0.36 | 0.00 | 90 | 1005.3 |
| 20260507090025 | 46 | 283 | 0.0 | 2.0 | 0.00 | 0.36 | 0.00 | 90 | 1004.9 |
| 20260507085509 | 46 | 283 | 0.0 | 2.0 | 0.00 | 0.36 | 0.00 | 90 | 1005.0 |
| 20260507085011 | 46 | 283 | 0.0 | 2.0 | 0.00 | 0.36 | 0.00 | 90 | 1004.9 |
| 20260507084526 | 46 | 12 | 0.0 | 2.0 | 0.00 | 0.36 | 0.00 | 90 | 1005.3 |
| 20260507084008 | 46 | 288 | 0.0 | 2.0 | 0.00 | 0.36 | 0.00 | 89 | 1005.0 |
| 20260507083507 | 46 | 288 | 0.0 | 2.0 | 0.00 | 0.36 | 0.00 | 89 | 1004.9 |
| 20260507083016 | 46 | 277 | 0.0 | 2.0 | 0.00 | 0.36 | 0.00 | 89 | 1004.9 |
| 20260507082509 | 46 | 262 | 0.0 | 2.0 | 0.00 | 0.36 | 0.00 | 89 | 1004.8 |
| 20260507082008 | 47 | 292 | 0.0 | 4.0 | 0.00 | 0.36 | 0.00 | 89 | 1005.1 |
| 20260507081520 | 47 | 292 | 0.0 | 4.0 | 0.00 | 0.36 | 0.00 | 89 | 1005.4 |
| 20260507081009 | 47 | 268 | 0.0 | 2.0 | 0.00 | 0.36 | 0.00 | 89 | 1005.4 |
| 20260507080508 | 47 | 268 | 0.0 | 5.0 | 0.00 | 0.36 | 0.00 | 89 | 1005.3 |
| 20260507080024 | 47 | 268 | 1.0 | 5.0 | 0.00 | 0.36 | 0.00 | 89 | 1005.1 |
| 20260507075508 | 47 | 270 | 1.0 | 3.0 | 0.00 | 0.36 | 0.00 | 89 | 1005.1 |
| 20260507075012 | 47 | 262 | 0.0 | 2.0 | 0.00 | 0.36 | 0.00 | 89 | 1004.9 |
| 20260507074528 | 47 | 262 | 0.0 | 2.0 | 0.00 | 0.36 | 0.00 | 89 | 1004.8 |
| 20260507074009 | 47 | 262 | 0.0 | 2.0 | 0.00 | 0.36 | 0.00 | 89 | 1004.9 |
| 20260507073508 | 47 | 247 | 0.0 | 3.0 | 0.00 | 0.36 | 0.00 | 89 | 1004.8 |
| 20260507073027 | 47 | 247 | 0.0 | 3.0 | 0.00 | 0.36 | 0.00 | 89 | 1004.9 |
| 20260507072507 | 47 | 263 | 0.0 | 4.0 | 0.00 | 0.36 | 0.00 | 89 | 1004.7 |
| 20260507072007 | 47 | 225 | 2.0 | 4.0 | 0.00 | 0.36 | 0.00 | 89 | 1004.8 |
| 20260507071520 | 48 | 113 | 0.0 | 4.0 | 0.00 | 0.36 | 0.00 | 89 | 1004.6 |
| 20260507071008 | 48 | 184 | 1.0 | 4.0 | 0.00 | 0.36 | 0.00 | 89 | 1004.6 |
| 20260507070508 | 48 | 61 | 1.0 | 3.0 | 0.00 | 0.36 | 0.00 | 90 | 1004.8 |
| 20260507070035 | 48 | 224 | 0.0 | 3.0 | 0.00 | 0.36 | 0.00 | 90 | 1004.8 |
| 20260507065510 | 48 | 246 | 2.0 | 3.0 | 0.00 | 0.36 | 0.00 | 90 | 1004.7 |
| 20260507065010 | 48 | 67 | 0.0 | 3.0 | 0.00 | 0.36 | 0.00 | 89 | 1004.4 |
| 20260507064530 | 48 | 325 | 0.0 | 3.0 | 0.00 | 0.36 | 0.00 | 90 | 1004.4 |
| 20260507064004 | 48 | 145 | 0.0 | 3.0 | 0.00 | 0.36 | 0.00 | 90 | 1004.5 |
| 20260507063504 | 48 | 360 | 0.0 | 2.0 | 0.00 | 0.36 | 0.00 | 90 | 1004.6 |
| 20260507063007 | 49 | 360 | 0.0 | 2.0 | 0.00 | 0.36 | 0.00 | 90 | 1004.5 |
| 20260507062504 | 49 | 76 | 0.0 | 2.0 | 0.00 | 0.36 | 0.00 | 90 | 1004.6 |
| 20260507062005 | 49 | 275 | 0.0 | 3.0 | 0.00 | 0.36 | 0.00 | 90 | 1004.8 |
| 20260507061507 | 49 | 222 | 0.0 | 7.0 | 0.00 | 0.36 | 0.00 | 90 | 1004.8 |
| 20260507061004 | 49 | 269 | 0.0 | 7.0 | 0.00 | 0.36 | 0.00 | 90 | 1004.8 |
| 20260507060504 | 49 | 249 | 0.0 | 2.0 | 0.00 | 0.36 | 0.00 | 90 | 1004.4 |
| 20260507060013 | 49 | 271 | 1.0 | 2.0 | 0.00 | 0.36 | 0.00 | 90 | 1004.4 |
| 20260507055504 | 49 | 238 | 0.0 | 2.0 | 0.00 | 0.36 | 0.00 | 90 | 1004.3 |
| 20260507055002 | 49 | 275 | 0.0 | 3.0 | 0.00 | 0.36 | 0.00 | 90 | 1004.3 |
| 20260507054507 | 49 | 275 | 0.0 | 3.0 | 0.00 | 0.36 | 0.00 | 90 | 1004.4 |
| 20260507054004 | 49 | 288 | 0.0 | 7.0 | 0.00 | 0.36 | 0.00 | 90 | 1004.3 |
| 20260507053505 | 49 | 303 | 0.0 | 7.0 | 0.00 | 0.36 | 0.00 | 90 | 1004.5 |
| 20260507053007 | 49 | 165 | 1.0 | 4.0 | 0.00 | 0.36 | 0.00 | 90 | 1004.4 |
| 20260507052504 | 49 | 196 | 0.0 | 6.0 | 0.00 | 0.36 | 0.00 | 91 | 1004.4 |
| 20260507052007 | 49 | 252 | 0.0 | 7.0 | 0.00 | 0.36 | 0.00 | 91 | 1004.2 |
| 20260507051513 | 49 | 223 | 0.0 | 7.0 | 0.00 | 0.36 | 0.00 | 91 | 1004.1 |
| 20260507051005 | 50 | 234 | 1.0 | 6.0 | 0.00 | 0.36 | 0.00 | 91 | 1004.2 |
| 20260507050506 | 50 | 277 | 1.0 | 6.0 | 0.00 | 0.36 | 0.00 | 91 | 1004.2 |
| 20260507050020 | 50 | 269 | 2.0 | 10.0 | 0.00 | 0.36 | 0.00 | 91 | 1004.4 |
| 20260507045504 | 50 | 273 | 1.0 | 10.0 | 0.00 | 0.36 | 0.00 | 91 | 1004.4 |
| 20260507045005 | 50 | 282 | 2.0 | 7.0 | 0.00 | 0.36 | 0.00 | 91 | 1004.3 |
| 20260507044508 | 50 | 236 | 1.0 | 7.0 | 0.00 | 0.36 | 0.00 | 91 | 1004.3 |
| 20260507044010 | 50 | 277 | 1.0 | 5.0 | 0.00 | 0.36 | 0.00 | 91 | 1004.1 |
| 20260507043504 | 50 | 264 | 2.0 | 5.0 | 0.00 | 0.36 | 0.00 | 91 | 1004.2 |
| 20260507043007 | 51 | 313 | 2.0 | 5.0 | 0.00 | 0.36 | 0.00 | 91 | 1004.2 |
| 20260507042507 | 51 | 271 | 1.0 | 8.0 | 0.00 | 0.36 | 0.00 | 91 | 1004.3 |
| 20260507042007 | 51 | 253 | 1.0 | 8.0 | 0.00 | 0.36 | 0.00 | 91 | 1004.3 |
| 20260507041513 | 51 | 236 | 3.0 | 8.0 | 0.00 | 0.36 | 0.00 | 91 | 1004.1 |
| 20260507041006 | 51 | 259 | 2.0 | 6.0 | 0.00 | 0.36 | 0.00 | 91 | 1003.9 |
| 20260507040507 | 51 | 235 | 2.0 | 6.0 | 0.00 | 0.36 | 0.00 | 91 | 1003.9 |
| 20260507040009 | 52 | 274 | 1.0 | 10.0 | 0.00 | 0.36 | 0.00 | 91 | 1003.7 |
| 20260507035504 | 52 | 275 | 1.0 | 10.0 | 0.00 | 0.36 | 0.36 | 91 | 1003.8 |
| 20260507035008 | 53 | 258 | 1.0 | 7.0 | 0.00 | 0.36 | 0.36 | 91 | 1003.9 |
| 20260507034509 | 53 | 16 | 2.0 | 9.0 | 0.01 | 0.36 | 0.36 | 91 | 1004.0 |
| 20260507034003 | 54 | 280 | 1.0 | 9.0 | 0.01 | 0.36 | 0.36 | 91 | 1003.9 |
| 20260507033506 | 55 | 257 | 1.0 | 10.0 | 0.02 | 0.36 | 0.36 | 91 | 1003.7 |
| 20260507033013 | 56 | 265 | 1.0 | 12.0 | 0.03 | 0.36 | 0.36 | 92 | 1003.8 |
| 20260507032504 | 56 | 342 | 3.0 | 12.0 | 0.03 | 0.36 | 0.36 | 92 | 1003.8 |
| 20260507032004 | 57 | 255 | 0.0 | 8.0 | 0.03 | 0.36 | 0.36 | 92 | 1003.8 |
| 20260507031509 | 57 | 231 | 3.0 | 8.0 | 0.03 | 0.36 | 0.36 | 92 | 1003.7 |
| 20260507031009 | 57 | 252 | 2.0 | 7.0 | 0.03 | 0.36 | 0.36 | 92 | 1003.6 |
| 20260507030506 | 57 | 313 | 1.0 | 7.0 | 0.03 | 0.36 | 0.36 | 92 | 1003.5 |
| 20260507030012 | 58 | 238 | 3.0 | 9.0 | 0.03 | 0.36 | 0.36 | 92 | 1003.4 |
| 20260507025507 | 58 | 208 | 3.0 | 9.0 | 0.03 | 0.36 | 0.36 | 92 | 1003.3 |
| 20260507025005 | 58 | 220 | 1.0 | 9.0 | 0.03 | 0.36 | 0.36 | 92 | 1003.3 |
| 20260507024511 | 58 | 251 | 3.0 | 8.0 | 0.02 | 0.35 | 0.35 | 92 | 1003.3 |
| 20260507024007 | 58 | 256 | 5.0 | 8.0 | 0.02 | 0.35 | 0.35 | 92 | 1003.1 |
| 20260507023506 | 58 | 161 | 3.0 | 8.0 | 0.01 | 0.34 | 0.34 | 92 | 1003.2 |
| 20260507023013 | 58 | 207 | 3.0 | 8.0 | 0.00 | 0.33 | 0.33 | 92 | 1003.3 |
| 20260507022506 | 58 | 229 | 3.0 | 6.0 | 0.00 | 0.33 | 0.33 | 92 | 1003.2 |
| 20260507022007 | 58 | 217 | 3.0 | 6.0 | 0.00 | 0.33 | 0.33 | 92 | 1003.3 |
| 20260507021514 | 58 | 221 | 2.0 | 10.0 | 0.00 | 0.33 | 0.33 | 92 | 1003.3 |
| 20260507021006 | 58 | 219 | 2.0 | 10.0 | 0.00 | 0.33 | 0.33 | 92 | 1003.3 |
| 20260507020504 | 58 | 224 | 6.0 | 9.0 | 0.00 | 0.33 | 0.33 | 92 | 1003.4 |
| 20260507020012 | 58 | 244 | 2.0 | 8.0 | 0.00 | 0.33 | 0.33 | 92 | 1003.4 |
| 20260507015506 | 58 | 245 | 4.0 | 10.0 | 0.00 | 0.33 | 0.33 | 92 | 1003.5 |
| 20260507015008 | 58 | 225 | 2.0 | 11.0 | 0.00 | 0.33 | 0.33 | 92 | 1003.5 |
| 20260507014513 | 58 | 205 | 4.0 | 12.0 | 0.00 | 0.33 | 0.33 | 92 | 1003.6 |
| 20260507014007 | 58 | 238 | 5.0 | 12.0 | 0.00 | 0.33 | 0.33 | 92 | 1003.6 |
| 20260507013505 | 58 | 266 | 1.0 | 9.0 | 0.00 | 0.33 | 0.33 | 92 | 1003.5 |
| 20260507013017 | 58 | 236 | 4.0 | 10.0 | 0.00 | 0.33 | 0.33 | 92 | 1003.5 |
| 20260507012505 | 58 | 240 | 6.0 | 11.0 | 0.00 | 0.33 | 0.33 | 92 | 1003.5 |
| 20260507012007 | 58 | 202 | 3.0 | 11.0 | 0.00 | 0.33 | 0.33 | 92 | 1003.6 |
| 20260507011528 | 58 | 145 | 2.0 | 10.0 | 0.00 | 0.33 | 0.33 | 92 | 1003.5 |
| 20260507011009 | 58 | 202 | 3.0 | 10.0 | 0.00 | 0.33 | 0.33 | 92 | 1003.7 |
| 20260507010513 | 58 | 229 | 3.0 | 9.0 | 0.00 | 0.33 | 0.33 | 92 | 1003.6 |
| 20260507010008 | 58 | 218 | 2.0 | 9.0 | 0.00 | 0.33 | 0.33 | 92 | 1003.6 |
| 20260507005508 | 58 | 213 | 3.0 | 7.0 | 0.00 | 0.33 | 0.33 | 92 | 1003.6 |
| 20260507005005 | 58 | 204 | 3.0 | 7.0 | 0.00 | 0.33 | 0.33 | 92 | 1003.7 |
| 20260507004516 | 58 | 248 | 2.0 | 7.0 | 0.00 | 0.33 | 0.33 | 92 | 1003.6 |
| 20260507004006 | 58 | 264 | 4.0 | 7.0 | 0.00 | 0.33 | 0.33 | 92 | 1003.6 |
| 20260507003506 | 58 | 187 | 3.0 | 8.0 | 0.00 | 0.33 | 0.33 | 92 | 1003.6 |
| 20260507003016 | 58 | 206 | 3.0 | 8.0 | 0.00 | 0.33 | 0.33 | 92 | 1003.6 |
| 20260507002509 | 58 | 161 | 1.0 | 7.0 | 0.00 | 0.33 | 0.33 | 92 | 1003.5 |
| 20260507002011 | 58 | 236 | 2.0 | 8.0 | 0.00 | 0.33 | 0.33 | 92 | 1003.5 |
| 20260507001524 | 58 | 188 | 2.0 | 8.0 | 0.00 | 0.33 | 0.33 | 92 | 1003.5 |
| 20260507001007 | 58 | 256 | 2.0 | 7.0 | 0.00 | 0.33 | 0.33 | 92 | 1003.6 |
| 20260507000506 | 58 | 190 | 1.0 | 7.0 | 0.00 | 0.33 | 0.33 | 92 | 1003.4 |
| 20260507000019 | 58 | 159 | 2.0 | 7.0 | 0.00 | 0.33 | 0.33 | 92 | 1003.5 |
| 20260506235508 | 58 | 176 | 3.0 | 8.0 | 0.00 | 0.33 | 0.33 | 92 | 1003.4 |
| 20260506235007 | 58 | 230 | 2.0 | 7.0 | 0.00 | 0.33 | 0.33 | 92 | 1003.4 |
| 20260506234510 | 58 | 221 | 2.0 | 8.0 | 0.00 | 0.33 | 0.33 | 92 | 1003.6 |
| 20260506234008 | 58 | 209 | 3.0 | 8.0 | 0.00 | 0.33 | 0.33 | 92 | 1003.5 |
| 20260506233507 | 58 | 208 | 2.0 | 7.0 | 0.00 | 0.33 | 0.33 | 92 | 1003.5 |
| 20260506233019 | 58 | 224 | 3.0 | 11.0 | 0.00 | 0.33 | 0.33 | 92 | 1003.5 |
| 20260506232509 | 58 | 244 | 4.0 | 10.0 | 0.00 | 0.33 | 0.33 | 92 | 1003.6 |
| 20260506232006 | 59 | 242 | 1.0 | 8.0 | 0.00 | 0.33 | 0.33 | 92 | 1003.6 |
| 20260506231515 | 59 | 220 | 2.0 | 8.0 | 0.00 | 0.33 | 0.33 | 92 | 1003.5 |
| 20260506231006 | 59 | 281 | 3.0 | 8.0 | 0.00 | 0.33 | 0.33 | 92 | 1003.5 |
| 20260506230508 | 59 | 215 | 2.0 | 6.0 | 0.01 | 0.33 | 0.33 | 92 | 1003.7 |
| 20260506230020 | 59 | 211 | 3.0 | 9.0 | 0.01 | 0.33 | 0.33 | 92 | 1003.6 |
| 20260506225513 | 59 | 152 | 2.0 | 11.0 | 0.01 | 0.33 | 0.33 | 92 | 1003.7 |
| 20260506225013 | 59 | 207 | 4.0 | 11.0 | 0.02 | 0.33 | 0.33 | 92 | 1003.8 |
| 20260506224520 | 59 | 236 | 4.0 | 10.0 | 0.02 | 0.33 | 0.33 | 92 | 1003.7 |
| 20260506224009 | 59 | 152 | 3.0 | 10.0 | 0.03 | 0.33 | 0.33 | 92 | 1003.8 |
| 20260506223506 | 59 | 234 | 2.0 | 10.0 | 0.03 | 0.33 | 0.33 | 92 | 1003.8 |
| 20260506223018 | 59 | 257 | 2.0 | 10.0 | 0.04 | 0.33 | 0.33 | 92 | 1003.9 |
| 20260506222509 | 59 | 276 | 3.0 | 14.0 | 0.04 | 0.33 | 0.33 | 92 | 1004.0 |
| 20260506222009 | 59 | 212 | 5.0 | 14.0 | 0.05 | 0.33 | 0.33 | 92 | 1004.0 |
| 20260506221519 | 59 | 178 | 2.0 | 9.0 | 0.05 | 0.33 | 0.33 | 92 | 1003.9 |
| 20260506221010 | 59 | 142 | 3.0 | 9.0 | 0.06 | 0.33 | 0.33 | 92 | 1003.9 |
| 20260506220507 | 59 | 153 | 4.0 | 8.0 | 0.06 | 0.32 | 0.32 | 92 | 1004.0 |
| 20260506220020 | 59 | 216 | 2.0 | 9.0 | 0.07 | 0.32 | 0.32 | 92 | 1004.0 |
| 20260506215510 | 59 | 192 | 4.0 | 14.0 | 0.07 | 0.32 | 0.32 | 92 | 1003.9 |
| 20260506215008 | 59 | 154 | 4.0 | 14.0 | 0.07 | 0.31 | 0.31 | 92 | 1004.1 |
| 20260506214522 | 59 | 230 | 4.0 | 13.0 | 0.07 | 0.31 | 0.31 | 92 | 1004.2 |
| 20260506214008 | 59 | 149 | 6.0 | 13.0 | 0.07 | 0.30 | 0.30 | 92 | 1004.2 |
| 20260506213508 | 59 | 171 | 4.0 | 11.0 | 0.09 | 0.30 | 0.30 | 92 | 1004.3 |